Time,TemperatureF,DewpointF,PressureIn,WindDirection,WindDirectionDegrees,WindSpeedMPH,WindSpeedGustMPH,Humidity,HourlyPrecipIn,Conditions,Clouds,dailyrainin,SolarRadiationWatts/m^2,SoftwareType,DateUTC
2013-08-10 00:02:00,50.0,42.0,-100.00,North,11,2.0,5.0,75,-99.99,,,-99.99,0.000000,,2013-08-10 06:02:00,
2013-08-10 00:22:00,50.0,43.0,-100.00,North,355,3.0,5.0,75,-99.99,,,-99.99,0.000000,,2013-08-10 06:22:00,
2013-08-10 00:52:00,50.0,43.0,-100.00,North,1,3.0,4.0,75,-99.99,,,-99.99,0.000000,,2013-08-10 06:52:00,
2013-08-10 01:02:00,50.0,42.0,-100.00,North,2,2.0,2.0,75,-99.99,,,-99.99,0.000000,,2013-08-10 07:02:00,
2013-08-10 01:22:00,50.0,43.0,-100.00,North,7,1.0,3.0,77,-99.99,,,-99.99,0.000000,,2013-08-10 07:22:00,
2013-08-10 01:52:00,49.0,44.0,-100.00,North,2,3.0,3.0,80,-99.99,,,-99.99,0.000000,,2013-08-10 07:52:00,
2013-08-10 02:01:00,50.0,43.0,-100.00,NNW,347,3.0,3.0,78,-99.99,,,-99.99,0.000000,,2013-08-10 08:01:00,
2013-08-10 02:12:00,49.0,43.0,-100.00,North,354,1.0,2.0,79,-99.99,,,-99.99,0.000000,,2013-08-10 08:12:00,
2013-08-10 02:21:00,49.0,43.0,-100.00,NNE,26,3.0,3.0,79,-99.99,,,-99.99,0.000000,,2013-08-10 08:21:00,
2013-08-10 02:32:00,49.0,43.0,-100.00,NNW,331,3.0,3.0,80,-99.99,,,-99.99,0.000000,,2013-08-10 08:32:00,
2013-08-10 02:52:00,49.0,43.0,-100.00,NNE,15,3.0,4.0,78,-99.99,,,-99.99,0.000000,,2013-08-10 08:52:00,
2013-08-10 03:02:00,48.0,42.0,-100.00,NW,308,1.0,2.0,79,-99.99,,,-99.99,0.000000,,2013-08-10 09:02:00,
2013-08-10 03:12:00,49.0,43.0,-100.00,North,6,4.0,5.0,79,-99.99,,,-99.99,0.000000,,2013-08-10 09:12:00,
2013-08-10 03:21:00,48.0,42.0,-100.00,NNW,330,4.0,5.0,80,-99.99,,,-99.99,0.000000,,2013-08-10 09:21:00,
2013-08-10 03:32:00,48.0,43.0,-100.00,NNE,24,3.0,3.0,81,-99.99,,,-99.99,0.000000,,2013-08-10 09:32:00,
2013-08-10 03:43:00,49.0,43.0,-100.00,North,359,3.0,3.0,80,-99.99,,,-99.99,0.000000,,2013-08-10 09:43:00,
2013-08-10 03:52:00,47.0,42.0,-100.00,North,10,2.0,2.0,80,-99.99,,,-99.99,0.000000,,2013-08-10 09:52:00,
2013-08-10 04:01:00,46.0,41.0,-100.00,West,274,1.0,3.0,85,-99.99,,,-99.99,0.000000,,2013-08-10 10:01:00,
2013-08-10 04:11:00,46.0,42.0,-100.00,NE,53,3.0,3.0,85,-99.99,,,-99.99,0.000000,,2013-08-10 10:11:00,
2013-08-10 04:33:00,45.0,41.0,-100.00,North,9,3.0,3.0,86,-99.99,,,-99.99,0.000000,,2013-08-10 10:33:00,
2013-08-10 04:43:00,45.0,42.0,-100.00,NNE,21,3.0,4.0,87,-99.99,,,-99.99,0.000000,,2013-08-10 10:43:00,
2013-08-10 05:02:00,45.0,41.0,-100.00,NNW,327,4.0,5.0,88,-99.99,,,-99.99,0.000000,,2013-08-10 11:02:00,
2013-08-10 05:11:00,46.0,42.0,-100.00,North,10,6.0,6.0,85,-99.99,,,-99.99,0.000000,,2013-08-10 11:11:00,
2013-08-10 05:21:00,47.0,41.0,-100.00,North,5,5.0,6.0,82,-99.99,,,-99.99,0.000000,,2013-08-10 11:21:00,
2013-08-10 05:33:00,46.0,41.0,-100.00,NNE,21,5.0,6.0,84,-99.99,,,-99.99,0.000000,,2013-08-10 11:33:00,
2013-08-10 05:43:00,47.0,43.0,-100.00,North,10,4.0,4.0,85,-99.99,,,-99.99,0.000000,,2013-08-10 11:43:00,
2013-08-10 05:52:00,45.0,40.0,-100.00,WNW,303,3.0,3.0,84,-99.99,,,-99.99,0.000000,,2013-08-10 11:52:00,
2013-08-10 06:01:00,45.0,42.0,-100.00,East,80,3.0,4.0,87,-99.99,,,-99.99,0.000000,,2013-08-10 12:01:00,
2013-08-10 06:11:00,44.0,40.0,-100.00,NW,309,2.0,2.0,86,-99.99,,,-99.99,0.000000,,2013-08-10 12:11:00,
2013-08-10 06:32:00,44.0,41.0,-100.00,NNE,15,2.0,3.0,87,-99.99,,,-99.99,0.000000,,2013-08-10 12:32:00,
2013-08-10 06:42:00,45.0,41.0,-100.00,North,9,4.0,4.0,87,-99.99,,,-99.99,0.000000,,2013-08-10 12:42:00,
2013-08-10 06:52:00,46.0,41.0,-100.00,NE,51,2.0,2.0,84,-99.99,,,-99.99,0.460000,,2013-08-10 12:52:00,
2013-08-10 07:21:00,46.0,42.0,-100.00,NNE,29,3.0,4.0,86,-99.99,,,-99.99,2.800000,,2013-08-10 13:21:00,
2013-08-10 07:43:00,49.0,44.0,-100.00,NW,316,6.0,8.0,83,-99.99,,,-99.99,16.469999,,2013-08-10 13:43:00,
2013-08-10 07:52:00,50.0,44.0,-100.00,SE,131,5.0,7.0,79,-99.99,,,-99.99,38.169998,,2013-08-10 13:52:00,
2013-08-10 08:02:00,49.0,44.0,-100.00,SSW,192,3.0,6.0,82,-99.99,,,-99.99,49.160000,,2013-08-10 14:02:00,
2013-08-10 08:12:00,49.0,44.0,-100.00,East,89,4.0,4.0,82,-99.99,,,-99.99,54.169998,,2013-08-10 14:12:00,
2013-08-10 08:22:00,50.0,45.0,-100.00,East,84,2.0,3.0,80,-99.99,,,-99.99,82.000000,,2013-08-10 14:22:00,
2013-08-10 08:32:00,53.0,45.0,-100.00,SSE,165,9.0,10.0,74,-99.99,,,-99.99,224.399994,,2013-08-10 14:32:00,
2013-08-10 08:42:00,54.0,46.0,-100.00,SSE,168,6.0,7.0,72,-99.99,,,-99.99,266.700012,,2013-08-10 14:42:00,
2013-08-10 08:53:00,55.0,46.0,-100.00,WSW,248,2.0,3.0,71,-99.99,,,-99.99,317.200012,,2013-08-10 14:53:00,
2013-08-10 09:11:00,58.0,46.0,-100.00,NNE,19,0.0,1.0,64,-99.99,,,-99.99,423.100006,,2013-08-10 15:11:00,
2013-08-10 09:22:00,60.0,47.0,-100.00,SE,136,2.0,4.0,61,-99.99,,,-99.99,506.700012,,2013-08-10 15:22:00,
2013-08-10 09:33:00,60.0,46.0,-100.00,SSW,210,4.0,5.0,60,-99.99,,,-99.99,552.200012,,2013-08-10 15:33:00,
2013-08-10 09:43:00,61.0,46.0,-100.00,South,188,5.0,6.0,57,-99.99,,,-99.99,601.599976,,2013-08-10 15:43:00,
2013-08-10 09:52:00,61.0,46.0,-100.00,South,188,4.0,7.0,56,-99.99,,,-99.99,751.900024,,2013-08-10 15:52:00,
2013-08-10 10:01:00,59.0,46.0,-100.00,SSW,192,10.0,12.0,61,-99.99,,,-99.99,199.800003,,2013-08-10 16:01:00,
2013-08-10 10:11:00,59.0,46.0,-100.00,NE,52,4.0,4.0,62,-99.99,,,-99.99,157.699997,,2013-08-10 16:11:00,
2013-08-10 10:43:00,64.0,44.0,-100.00,South,169,10.0,12.0,49,-99.99,,,-99.99,674.700012,,2013-08-10 16:43:00,
2013-08-10 10:53:00,65.0,43.0,-100.00,SE,138,5.0,7.0,44,-99.99,,,-99.99,620.599976,,2013-08-10 16:53:00,
2013-08-10 11:02:00,65.0,42.0,-100.00,East,84,5.0,7.0,43,-99.99,,,-99.99,388.899994,,2013-08-10 17:02:00,
2013-08-10 11:11:00,69.0,42.0,-100.00,NNW,333,1.0,4.0,38,-99.99,,,-99.99,878.000000,,2013-08-10 17:11:00,
2013-08-10 11:21:00,69.0,45.0,-100.00,NW,319,1.0,5.0,42,-99.99,,,-99.99,819.000000,,2013-08-10 17:21:00,
2013-08-10 11:33:00,72.0,43.0,-100.00,SE,126,2.0,3.0,34,-99.99,,,-99.99,489.299988,,2013-08-10 17:33:00,
2013-08-10 11:43:00,69.0,45.0,-100.00,South,185,9.0,10.0,42,-99.99,,,-99.99,356.100006,,2013-08-10 17:43:00,
2013-08-10 11:52:00,71.0,47.0,-100.00,South,183,9.0,10.0,41,-99.99,,,-99.99,857.000000,,2013-08-10 17:52:00,
2013-08-10 12:01:00,71.0,48.0,-100.00,SSW,204,7.0,9.0,43,-99.99,,,-99.99,861.000000,,2013-08-10 18:01:00,
2013-08-10 12:11:00,72.0,45.0,-100.00,SW,221,6.0,7.0,38,-99.99,,,-99.99,917.000000,,2013-08-10 18:11:00,
2013-08-10 12:23:00,75.0,43.0,-100.00,South,187,4.0,5.0,31,-99.99,,,-99.99,824.000000,,2013-08-10 18:23:00,
2013-08-10 12:32:00,78.0,43.0,-100.00,South,170,4.0,7.0,28,-99.99,,,-99.99,868.000000,,2013-08-10 18:32:00,
2013-08-10 12:43:00,79.0,41.0,-100.00,South,184,7.0,8.0,24,-99.99,,,-99.99,908.000000,,2013-08-10 18:43:00,
2013-08-10 12:52:00,79.0,41.0,-100.00,SW,215,5.0,8.0,25,-99.99,,,-99.99,1007.000000,,2013-08-10 18:52:00,
2013-08-10 13:01:00,79.0,42.0,-100.00,SSW,198,5.0,7.0,26,-99.99,,,-99.99,969.000000,,2013-08-10 19:01:00,
2013-08-10 13:11:00,81.0,42.0,-100.00,South,181,6.0,9.0,24,-99.99,,,-99.99,1015.000000,,2013-08-10 19:11:00,
2013-08-10 13:21:00,81.0,42.0,-100.00,South,181,6.0,9.0,24,-99.99,,,-99.99,1015.000000,,2013-08-10 19:21:00,
2013-08-10 13:44:00,82.0,41.0,-100.00,South,174,11.0,13.0,23,-99.99,,,-99.99,1049.000000,,2013-08-10 19:44:00,
2013-08-10 14:11:00,81.0,38.0,-100.00,SE,134,13.0,15.0,21,-99.99,,,-99.99,1076.000000,,2013-08-10 20:11:00,
2013-08-10 14:33:00,85.0,31.0,-100.00,South,182,15.0,18.0,14,-99.99,,,-99.99,1059.000000,,2013-08-10 20:33:00,
2013-08-10 14:43:00,85.0,27.0,-100.00,South,183,13.0,17.0,12,-99.99,,,-99.99,1054.000000,,2013-08-10 20:43:00,
2013-08-10 15:02:00,84.0,26.0,-100.00,SSW,201,14.0,20.0,12,-99.99,,,-99.99,992.000000,,2013-08-10 21:02:00,
2013-08-10 15:11:00,85.0,28.0,-100.00,South,181,16.0,21.0,12,-99.99,,,-99.99,974.000000,,2013-08-10 21:11:00,
2013-08-10 15:22:00,85.0,28.0,-100.00,South,181,16.0,21.0,12,-99.99,,,-99.99,974.000000,,2013-08-10 21:22:00,
2013-08-10 15:32:00,87.0,29.0,-100.00,South,184,15.0,21.0,12,-99.99,,,-99.99,1112.000000,,2013-08-10 21:32:00,
2013-08-10 15:42:00,86.0,34.0,-100.00,South,181,20.0,23.0,15,-99.99,,,-99.99,1058.000000,,2013-08-10 21:42:00,
2013-08-10 15:52:00,83.0,37.0,-100.00,South,178,18.0,21.0,19,-99.99,,,-99.99,594.700012,,2013-08-10 21:52:00,
2013-08-10 16:01:00,85.0,37.0,-100.00,South,176,17.0,24.0,18,-99.99,,,-99.99,981.000000,,2013-08-10 22:01:00,
2013-08-10 16:11:00,80.0,40.0,-100.00,South,191,20.0,29.0,24,-99.99,,,-99.99,280.200012,,2013-08-10 22:11:00,
2013-08-10 16:21:00,80.0,40.0,-100.00,South,191,20.0,29.0,24,-99.99,,,-99.99,280.200012,,2013-08-10 22:21:00,
2013-08-10 16:43:00,79.0,39.0,-100.00,South,183,15.0,21.0,24,-99.99,,,-99.99,322.200012,,2013-08-10 22:43:00,
2013-08-10 16:52:00,79.0,36.0,-100.00,South,182,15.0,20.0,21,-99.99,,,-99.99,347.899994,,2013-08-10 22:52:00,
2013-08-10 17:12:00,80.0,36.0,-100.00,South,175,15.0,21.0,20,-99.99,,,-99.99,299.100006,,2013-08-10 23:12:00,
2013-08-10 17:22:00,79.0,36.0,-100.00,South,173,14.0,20.0,21,-99.99,,,-99.99,247.699997,,2013-08-10 23:22:00,
2013-08-10 17:32:00,79.0,37.0,-100.00,SSE,152,12.0,14.0,22,-99.99,,,-99.99,292.899994,,2013-08-10 23:32:00,
2013-08-10 17:43:00,82.0,37.0,-100.00,SSE,161,11.0,14.0,20,-99.99,,,-99.99,726.099976,,2013-08-10 23:43:00,
2013-08-10 18:01:00,77.0,40.0,-100.00,SSW,197,5.0,10.0,26,-99.99,,,-99.99,170.800003,,2013-08-11 00:01:00,
2013-08-10 18:11:00,75.0,42.0,-100.00,SSW,204,5.0,6.0,30,-99.99,,,-99.99,93.099998,,2013-08-11 00:11:00,
2013-08-10 18:22:00,74.0,43.0,-100.00,SW,224,4.0,5.0,32,-99.99,,,-99.99,111.500000,,2013-08-11 00:22:00,
2013-08-10 18:32:00,76.0,45.0,-100.00,SW,223,3.0,4.0,32,-99.99,,,-99.99,397.399994,,2013-08-11 00:32:00,
2013-08-10 18:42:00,79.0,38.0,-100.00,SSW,202,6.0,7.0,23,-99.99,,,-99.99,360.299988,,2013-08-11 00:42:00,
2013-08-10 18:52:00,77.0,39.0,-100.00,SW,222,5.0,8.0,25,-99.99,,,-99.99,189.500000,,2013-08-11 00:52:00,
2013-08-10 19:01:00,75.0,42.0,-100.00,SSW,207,5.0,7.0,30,-99.99,,,-99.99,92.300003,,2013-08-11 01:01:00,
2013-08-10 19:11:00,74.0,43.0,-100.00,SW,224,2.0,4.0,32,-99.99,,,-99.99,157.899994,,2013-08-11 01:11:00,
2013-08-10 19:22:00,76.0,41.0,-100.00,SW,217,3.0,4.0,28,-99.99,,,-99.99,237.100006,,2013-08-11 01:22:00,
2013-08-10 19:32:00,79.0,41.0,-100.00,SSW,202,1.0,2.0,25,-99.99,,,-99.99,283.799988,,2013-08-11 01:32:00,
2013-08-10 19:43:00,79.0,39.0,-100.00,SSW,203,4.0,8.0,23,-99.99,,,-99.99,262.899994,,2013-08-11 01:43:00,
2013-08-10 19:53:00,79.0,40.0,-100.00,SSW,199,4.0,5.0,24,-99.99,,,-99.99,172.899994,,2013-08-11 01:53:00,
2013-08-10 20:02:00,75.0,41.0,-100.00,SSW,207,4.0,6.0,28,-99.99,,,-99.99,51.540001,,2013-08-11 02:02:00,
2013-08-10 20:11:00,73.0,42.0,-100.00,SSW,193,2.0,5.0,32,-99.99,,,-99.99,31.820000,,2013-08-11 02:11:00,
2013-08-10 20:22:00,72.0,41.0,-100.00,South,179,3.0,4.0,32,-99.99,,,-99.99,26.000000,,2013-08-11 02:22:00,
2013-08-10 20:32:00,71.0,42.0,-100.00,SSW,193,1.0,2.0,34,-99.99,,,-99.99,22.020000,,2013-08-11 02:32:00,
2013-08-10 20:43:00,69.0,43.0,-100.00,SW,225,3.0,4.0,37,-99.99,,,-99.99,17.270000,,2013-08-11 02:43:00,
2013-08-10 21:02:00,67.0,44.0,-100.00,SSE,161,2.0,5.0,44,-99.99,,,-99.99,5.090000,,2013-08-11 03:02:00,
2013-08-10 21:13:00,66.0,44.0,-100.00,SSW,194,2.0,3.0,44,-99.99,,,-99.99,1.310000,,2013-08-11 03:13:00,
2013-08-10 21:43:00,65.0,42.0,-100.00,NNE,15,4.0,4.0,43,-99.99,,,-99.99,0.110000,,2013-08-11 03:43:00,
2013-08-10 22:01:00,62.0,42.0,-100.00,NNE,14,6.0,7.0,47,-99.99,,,-99.99,0.040000,,2013-08-11 04:01:00,
2013-08-10 22:12:00,62.0,40.0,-100.00,NNE,16,7.0,8.0,44,-99.99,,,-99.99,0.040000,,2013-08-11 04:12:00,
2013-08-10 22:22:00,63.0,38.0,-100.00,NNE,14,6.0,6.0,39,-99.99,,,-99.99,0.010000,,2013-08-11 04:22:00,
2013-08-10 22:32:00,63.0,39.0,-100.00,North,3,7.0,7.0,41,-99.99,,,-99.99,0.080000,,2013-08-11 04:32:00,
2013-08-10 22:42:00,61.0,39.0,-100.00,North,5,5.0,6.0,43,-99.99,,,-99.99,0.090000,,2013-08-11 04:42:00,
2013-08-10 22:53:00,60.0,40.0,-100.00,North,5,5.0,5.0,46,-99.99,,,-99.99,0.060000,,2013-08-11 04:53:00,
2013-08-10 23:02:00,60.0,40.0,-100.00,NNE,15,5.0,5.0,47,-99.99,,,-99.99,0.020000,,2013-08-11 05:02:00,
2013-08-10 23:13:00,59.0,40.0,-100.00,NNE,30,8.0,8.0,49,-99.99,,,-99.99,0.030000,,2013-08-11 05:13:00,
2013-08-10 23:22:00,59.0,40.0,-100.00,NNE,15,8.0,8.0,50,-99.99,,,-99.99,0.030000,,2013-08-11 05:22:00,